937  
ASUS41 KBGM 241610  
RWRBGM  
 
REGIONAL WEATHER ROUNDUP  
NATIONAL WEATHER SERVICE BINGHAMTON NY  
1200 PM EDT SUN OCT 24 2021  
 
NOTE: "FAIR" INDICATES FEW OR NO CLOUDS BELOW 12,000 FEET WITH NO  
SIGNIFICANT WEATHER AND/OR S TO VISIBILITY
.  
 
* = STATION(S) THAT DOES NOT REPORT PRECIPITATION, SUCH AS RAIN,  
SNOW, ETC, ALSO NO THUNDER OR FOG.
 
 
NYZ009-015>018-022>025-036-037-044>046-055>057-062-241700   
..CENTRAL NEW YORK
 
 
 
CITY SKY/WX TMP DP RH WIND PRES REMARKS
 
BINGHAMTON PTSUNNY 46 42 86 SW7 30.13R  
CORTLAND PTSUNNY 50 43 76 S6 30.13R  
DANSVILLE MOSUNNY 54 41 61 CALM 30.11R  
ELMIRA MOSUNNY 54 45 71 CALM 30.12R  
ENDICOTT CLOUDY 48 43 81 SW7 30.15  
ITHACA PTSUNNY 50 43 77 S7 30.13R  
HAMILTON FAIR 52 43 71 SE5 30.13  
MONTICELLO CLOUDY 45 43 93 W3 30.17R  
NORWICH CLOUDY 48 43 81 S5 30.17  
ONEONTA FAIR 48 39 71 SW6 30.13  
PENN YAN SUNNY 55 41 59 VRB7 30.11R  
ROME SUNNY 51 41 68 VRB3 30.15S  
SENECA FALLS FAIR 55 43 62 S6 30.12  
SIDNEY FAIR 52 45 76 W7 30.14  
SKANEATELES FAIR 52 43 71 W8 30.11S  
SYRACUSE MOSUNNY 56 45 66 VRB3 30.13R  

 
 
PAZ038>040-043-044-047-048-072-241700   
..NORTHEAST PENNSYLVANIA
 
 
 
CITY SKY/WX TMP DP RH WIND PRES REMARKS
 
HAZLETON CLOUDY 46 45 93 CALM 30.21R  
SCRANTON CLOUDY 50 44 80 NW3 30.17R  
TOWANDA MOSUNNY 48 46 93 CALM 30.18S  

 

 
KEY  
WCI = WIND CHILL INDEX  
VSB = VISIBILITY  
HX = HEAT INDEX  

 
 
 
CLICK HERE TO GO TO PREVIOUS BULLETINS.

The Nexlab NY Page
The Nexlab PA Page Main Text Page